Flock 4be-18

operational
NORAD ID: 60480 Int'l Des: 2024-149 Owner: PLAN Country: US Constellation: planet
LEOCIRCULARRETROGRADESSO

About Flock 4be-18

Description loading...

Live Position

Loading 3D Globe...

Upcoming Passes

Altitude History

Altitude vs Time

uPlot chart will show altitude changes over time

Two-Line Element Set

1 60480U 24149N 26062.17182412 .00022971 00000-0 61650-3 0 9992
2 60480 97.3789 145.0658 0003024 270.5222 89.5677 15.37952671 85990
Epoch: Mar 3, 2026 • Age: 15 hours

Current Status

Altitude 474.2 km
Velocity 7.63 km/s
Sub-Earth Point -62.13°S, 136.5°E
Launch Date Aug 16, 2024
Age 1.5 years
Type earth observation

Technical Details

Classification Payload
Mass 5.70 kg
Dry Mass 5.70 kg
Total Mass 5.70 kg
Length 0.30 m
Diameter 0.10 m
Span 0.30 m
Shape Box+2 pan
Manufacturer PLAN
Bus Type Cubesat 3U
Phase Status In Orbit
Owner/State PLAN/US

Large Constellations

Loading constellations...